West Palm Beach, FL

3:37 PM EDT on October 18, 2019 (GMT -0400)
Palm Beach International

Weather History for KPBI - September, 2019

Change the Weather History Date:

Wednesday, September 18, 2019

  Actual Average Record
Temperature  
Mean Temperature 82 °F 82 °F  
Max Temperature 88 °F 88 °F 95 °F (1951)
Min Temperature 76 °F 75 °F 66 °F (1920)
Degree Days  
Heating Degree Days 0 0  
Month to date heating degree days 0 0  
Since 1 July heating degree days 0 0  
Cooling Degree Days 17 17  
Month to date cooling degree days 341 306  
Year to date cooling degree days 3507 3012  
Growing Degree Days 32 (Base 50)    
Moisture  
Dew Point 72 °F    
Average Humidity 72    
Maximum Humidity 88    
Minimum Humidity 55    
Precipitation  
Precipitation 0.02 in 0.30 in 4.35 in (1926)
Month to date precipitation 1.27 5.13  
Year to date precipitation 45.23 45.85  
Snow  
Snow 0.00 in - - ()
Month to date snowfall 0.0  
Since 1 July snowfall 0.0  
Since 1 September snowfall 0.0  
Snow Depth 0.00 in    
Sea Level Pressure  
Sea Level Pressure 29.94 in    
Wind  
Wind Speed 10 mph (NNE)    
Max Wind Speed 20 mph    
Max Gust Speed 24 mph    
Visibility 10 miles    
Events      
T = Trace of Precipitation, MM = Missing Value Source: NWS Daily Summary

Daily Weather History Graph

Daily Weather History Graph

Search for Another Location

Airport or City:

Astronomy

Sep. 18, 2019 Rise Set
Actual Time 7:07 AM EDT 7:21 PM EDT
Civil Twilight 6:43 AM EDT 7:44 PM EDT
Nautical Twilight 6:16 AM EDT 8:11 PM EDT
Astronomical Twilight 5:49 AM EDT 8:39 PM EDT
Moon 10:17 PM EDT 10:48 AM EDT
Length of Visible Light 13h 00m
Length of Day
12h 14m
Waning Gibbous, 82% of the Moon is Illuminated
Sep 18
Waning Gibbous
Sep 21
Last Quarter
Sep 28
New
Oct 5
First Quarter
Oct 13
Full

Hourly Weather History & Observations

Time (EDT) Temp. Heat Index Dew Point Humidity Pressure Visibility Wind Dir Wind Speed Gust Speed Precip Events Conditions
12:53 AM 80.1 °F 84.5 °F 73.9 °F 81% 29.93 in 10.0 mi North 6.9 mph - N/A   Scattered Clouds
1:53 AM 79.0 °F - 72.0 °F 79% 29.92 in 10.0 mi East 5.8 mph - 0.00 in   Mostly Cloudy
2:53 AM 78.1 °F - 73.9 °F 87% 29.91 in 10.0 mi West 4.6 mph - 0.00 in   Mostly Cloudy
3:53 AM 77.0 °F - 73.9 °F 90% 29.91 in 10.0 mi Calm Calm - 0.00 in   Mostly Cloudy
4:53 AM 77.0 °F - 73.9 °F 90% 29.90 in 10.0 mi NW 3.5 mph - 0.02 in   Mostly Cloudy
5:53 AM 77.0 °F - 75.0 °F 94% 29.91 in 10.0 mi NW 3.5 mph - N/A   Scattered Clouds
6:53 AM 81.0 °F 85.8 °F 73.0 °F 77% 29.93 in 10.0 mi NNE 3.5 mph - N/A   Scattered Clouds
7:53 AM 79.0 °F - 73.9 °F 84% 29.94 in 10.0 mi North 4.6 mph - N/A   Scattered Clouds
8:53 AM 84.0 °F 89.0 °F 71.1 °F 65% 29.95 in 10.0 mi NNE 11.5 mph - N/A   Scattered Clouds
9:53 AM 84.9 °F 90.1 °F 71.1 °F 63% 29.96 in 10.0 mi NNE 11.5 mph - N/A   Scattered Clouds
10:53 AM 86.0 °F 92.2 °F 72.0 °F 63% 29.96 in 10.0 mi NE 13.8 mph 21.9 mph N/A   Scattered Clouds
11:53 AM 86.0 °F 91.5 °F 71.1 °F 61% 29.96 in 10.0 mi NE 13.8 mph - N/A   Scattered Clouds
12:53 PM 87.1 °F 92.0 °F 70.0 °F 57% 29.95 in 10.0 mi NNE 13.8 mph - N/A   Scattered Clouds
1:53 PM 88.0 °F 92.9 °F 70.0 °F 55% 29.95 in 10.0 mi NE 12.7 mph - N/A   Scattered Clouds
2:53 PM 87.1 °F 92.8 °F 71.1 °F 59% 29.95 in 10.0 mi NE 15.0 mph - N/A   Mostly Cloudy
3:53 PM 87.1 °F 92.0 °F 70.0 °F 57% 29.94 in 10.0 mi North 15.0 mph - N/A   Scattered Clouds
4:53 PM 86.0 °F 90.1 °F 69.1 °F 57% 29.92 in 10.0 mi ENE 13.8 mph - N/A   Scattered Clouds
5:53 PM 86.0 °F 90.7 °F 70.0 °F 59% 29.92 in 10.0 mi NNE 10.4 mph - N/A   Mostly Cloudy
6:53 PM 84.9 °F 89.4 °F 70.0 °F 61% 29.92 in 10.0 mi NE 12.7 mph - N/A   Mostly Cloudy
7:53 PM 84.0 °F 89.0 °F 71.1 °F 65% 29.93 in 10.0 mi NE 12.7 mph - N/A   Mostly Cloudy
8:53 PM 82.0 °F 86.7 °F 72.0 °F 71% 29.95 in 10.0 mi NNE 9.2 mph - N/A   Scattered Clouds
9:53 PM 82.9 °F 87.0 °F 70.0 °F 65% 29.96 in 10.0 mi NE 12.7 mph - N/A   Scattered Clouds
10:53 PM 82.9 °F 86.5 °F 69.1 °F 63% 29.97 in 10.0 mi NNE 11.5 mph - N/A   Scattered Clouds
11:53 PM 82.0 °F 85.5 °F 69.1 °F 65% 29.98 in 10.0 mi NE 13.8 mph 20.7 mph N/A   Mostly Cloudy